11.05.2024;08:00;20
11.05.2024;07:00;11
11.05.2024;06:00;20
11.05.2024;05:00;28
11.05.2024;04:00;56
11.05.2024;03:00;49
11.05.2024;02:00;52
11.05.2024;01:00;47
11.05.2024;00:00;54
10.05.2024;23:00;100
10.05.2024;22:00;114
10.05.2024;21:00;101
10.05.2024;20:00;97
10.05.2024;19:00;105
10.05.2024;18:00;112
10.05.2024;17:00;112
10.05.2024;16:00;113
10.05.2024;15:00;112
10.05.2024;14:00;112
10.05.2024;13:00;110
10.05.2024;12:00;96
10.05.2024;11:00;75
10.05.2024;10:00;65
10.05.2024;09:00;26
10.05.2024;08:00;9
10.05.2024;07:00;16
10.05.2024;06:00;23
10.05.2024;05:00;44
10.05.2024;04:00;33
10.05.2024;03:00;40
10.05.2024;02:00;40
10.05.2024;01:00;45
10.05.2024;00:00;75
09.05.2024;23:00;83
09.05.2024;22:00;99
09.05.2024;21:00;95
09.05.2024;20:00;101
09.05.2024;19:00;112
09.05.2024;18:00;113
09.05.2024;17:00;112
09.05.2024;16:00;113
09.05.2024;15:00;109
09.05.2024;14:00;105
09.05.2024;13:00;100
09.05.2024;12:00;93
09.05.2024;11:00;75
09.05.2024;10:00;61
09.05.2024;09:00;53
